,Output(kWh),Demand(kWh),Import(kWh),Export(kWh),HW(kWh),HWPV(kWh),Output(kWh/d),Demand(kWh/d),Import(kWh/d),Export(kWh/d),HW(kWh/d),HWPV(kWh/d)
14/07/2015,0.02,0.019,0.004,0.004,0.023,0.021,0.02,0.019,0.004,0.004,0.023,0.021
15/07/2015,3.897,3.37,1.414,1.942,0.624,0.555,3.877,3.351,1.41,1.938,0.601,0.534
16/07/2015,15.18,9.777,1.921,7.326,4.219,4.139,11.283,6.407,0.507,5.384,3.595,3.584
17/07/2015,25.21,17.62,3.404,11,7.634,7.515,10.03,7.843,1.483,3.674,3.415,3.376
18/07/2015,39.12,25.8,5.189,18.51,11.09,10.93,13.91,8.18,1.785,7.51,3.456,3.415
19/07/2015,56.99,33.07,5.842,29.76,15.19,15.03,17.87,7.27,0.653,11.25,4.1,4.1
20/07/2015,75.38,41.09,6.103,40.4,18.92,18.74,18.39,8.02,0.261,10.64,3.73,3.71
21/07/2015,84.14,50.14,9.502,43.52,22.39,21.02,8.76,9.05,3.399,3.12,3.47,2.28
22/07/2015,102.18,58.18,9.981,54.02,26.43,25.03,18.04,8.04,0.479,10.5,4.04,4.01
23/07/2015,114.29,65.81,10.91,59.44,29.99,28.55,12.11,7.63,0.929,5.42,3.56,3.52
24/07/2015,127.25,71.58,11.05,66.78,33.56,32.12,12.96,5.77,0.14,7.34,3.57,3.57
25/07/2015,133.41,74.78,11.07,69.77,35.42,33.97,6.16,3.2,0.02,2.99,1.86,1.85
26/07/2015,149.32,81.09,11.1,79.38,38.8,37.32,15.91,6.31,0.03,9.61,3.38,3.35
27/07/2015,156.09,85.8,11.84,82.03,40.7,39.18,6.77,4.71,0.74,2.65,1.9,1.86
28/07/2015,165.83,94.94,14.75,85.37,44.27,42.7,9.74,9.14,2.91,3.34,3.57,3.52
29/07/2015,179.25,103.03,17.18,92.95,48.22,45.52,13.42,8.09,2.43,7.58,3.95,2.82
30/07/2015,189.47,110.7,18.67,96.84,51.62,48.88,10.22,7.67,1.49,3.89,3.4,3.36
31/07/2015,203.99,119.29,20.95,104.88,55.7,51.67,14.52,8.59,2.28,8.04,4.08,2.79
01/08/2015,219.17,126.77,21.38,112.82,59.63,55.59,15.18,7.48,0.43,7.94,3.93,3.92
02/08/2015,234.81,134.55,21.85,121,63.16,59.1,15.64,7.78,0.47,8.18,3.53,3.51
03/08/2015,254.19,143.37,22.31,131.86,66.58,62.51,19.38,8.82,0.46,10.86,3.42,3.41
04/08/2015,266.11,151.23,23.81,137.27,70.2,66.08,11.92,7.86,1.5,5.41,3.62,3.57
05/08/2015,278.99,158.71,24.89,143.59,73.86,69.71,12.88,7.48,1.08,6.32,3.66,3.63
06/08/2015,288.85,166.7,26.87,147.27,77.22,73.02,9.86,7.99,1.98,3.68,3.36,3.31
07/08/2015,304.07,175.96,28.53,154.72,81.26,77,15.22,9.26,1.66,7.45,4.04,3.98
08/08/2015,320.16,184.39,29.14,162.79,85.14,80.86,16.09,8.43,0.61,8.07,3.88,3.86
09/08/2015,336.67,192.45,30.02,171.91,88.73,84.43,16.51,8.06,0.88,9.12,3.59,3.57
10/08/2015,353.41,203.67,32.33,179.48,92.76,88.4,16.74,11.22,2.31,7.57,4.03,3.97
11/08/2015,362.55,209.84,32.89,182.74,96.21,91.8,9.14,6.17,0.56,3.26,3.45,3.4
12/08/2015,373.1,217.13,33.87,186.78,99.63,95.22,10.55,7.29,0.98,4.04,3.42,3.42
13/08/2015,386.65,224.81,34.61,193.15,103.39,98.94,13.55,7.68,0.74,6.37,3.76,3.72
14/08/2015,393.77,229.61,35.16,195.81,105.54,101.08,7.12,4.8,0.55,2.66,2.15,2.14
15/08/2015,400.72,235.57,36.78,198.18,107.39,102.9,6.95,5.96,1.62,2.37,1.85,1.82
16/08/2015,414.17,242.99,40.01,207.22,111.54,104.52,13.45,7.42,3.23,9.04,4.15,1.62
17/08/2015,426.54,252.4,42.25,212.18,115.2,108.11,12.37,9.41,2.24,4.96,3.66,3.59
18/08/2015,440.24,260.06,43.5,219.3,118.74,111.64,13.7,7.66,1.25,7.12,3.54,3.53
19/08/2015,447.41,266.68,45.92,222.09,121.63,113.29,7.17,6.62,2.42,2.79,2.89,1.65
20/08/2015,455.97,273.99,47.41,224.65,124.44,116.07,8.56,7.31,1.49,2.56,2.81,2.78
21/08/2015,463.99,280.57,48.54,227.05,127.26,118.88,8.02,6.58,1.13,2.4,2.82,2.81
22/08/2015,480.58,289.85,49.67,235.29,131.06,122.6,16.59,9.28,1.13,8.24,3.8,3.72
23/08/2015,497.77,299.78,50.93,243.62,134.75,126.24,17.19,9.93,1.26,8.33,3.69,3.64
24/08/2015,508.23,306.68,52.48,248.35,138.59,129.71,10.46,6.9,1.55,4.73,3.84,3.47
25/08/2015,514.73,310.09,52.5,251.13,140.73,131.84,6.5,3.41,0.02,2.78,2.14,2.13
26/08/2015,522.51,314.55,52.53,254.17,143.99,135.07,7.78,4.46,0.03,3.04,3.26,3.23
27/08/2015,532.14,319.3,52.57,258.77,147.33,138.38,9.63,4.75,0.04,4.6,3.34,3.31
28/08/2015,543.33,323.93,52.59,264.87,151.1,142.14,11.19,4.63,0.02,6.1,3.77,3.76
29/08/2015,557.84,329.5,52.62,273.34,154.69,145.7,14.51,5.57,0.03,8.47,3.59,3.56
30/08/2015,567.66,334.65,52.64,277.66,158.07,149.07,9.82,5.15,0.02,4.32,3.38,3.37
31/08/2015,575.86,339.33,52.65,280.89,160.91,151.9,8.2,4.68,0.01,3.23,2.84,2.83
01/09/2015,581.93,342.5,52.68,283.54,162.77,153.76,6.07,3.17,0.03,2.65,1.86,1.86
02/09/2015,593.11,347.9,52.73,288.94,166.31,157.25,11.18,5.4,0.05,5.4,3.54,3.49
03/09/2015,603.57,352.74,52.78,294.47,169.94,160.84,10.46,4.84,0.05,5.53,3.63,3.59
04/09/2015,612.07,360.01,54.29,297.69,173.25,164.11,8.5,7.27,1.51,3.22,3.31,3.27
05/09/2015,620.37,368.51,56.34,300,176.22,167.02,8.3,8.5,2.05,2.31,2.97,2.91
06/09/2015,627.91,376.61,58.61,302.23,179.55,170.31,7.54,8.1,2.27,2.23,3.33,3.29
07/09/2015,644.54,384.94,59.35,311.57,183.04,173.77,16.63,8.33,0.74,9.34,3.49,3.46
08/09/2015,658.63,395.11,61.22,317.83,187.19,177.73,14.09,10.17,1.87,6.26,4.15,3.96
09/09/2015,667.21,402.27,62.03,320.54,190.71,181.2,8.58,7.16,0.81,2.71,3.52,3.47
10/09/2015,676.82,410.64,63.55,323.84,194.46,184.86,9.61,8.37,1.52,3.3,3.75,3.66
11/09/2015,692.92,419.74,64.76,332.41,197.73,188.1,16.1,9.1,1.21,8.57,3.27,3.24
12/09/2015,706.55,427.85,65.95,339.56,201.78,192.14,13.63,8.11,1.19,7.15,4.05,4.04
13/09/2015,717.66,435.9,67.43,344.54,205.75,196.04,11.11,8.05,1.48,4.98,3.97,3.9
14/09/2015,726.08,444.28,69.21,346.9,209.03,199.29,8.42,8.38,1.78,2.36,3.28,3.25
15/09/2015,734.6,451.58,70.34,349.77,212.5,202.67,8.52,7.3,1.13,2.87,3.47,3.38
16/09/2015,742.66,457.98,71.18,352.71,216.06,206.18,8.06,6.4,0.84,2.94,3.56,3.51
17/09/2015,747.66,465.73,75.5,355.05,218.54,207.06,5,7.75,4.32,2.34,2.48,0.88
18/09/2015,758.28,474.28,79.2,361.29,222.32,209.28,10.62,8.55,3.7,6.24,3.78,2.22
19/09/2015,767.03,482.4,81.6,364.84,226.31,212.1,8.75,8.12,2.4,3.55,3.99,2.82
20/09/2015,779.81,491.03,83.02,370.77,229.95,215.69,12.78,8.63,1.42,5.93,3.64,3.59
21/09/2015,789.76,497.5,84.74,376.34,233.88,218.44,9.95,6.47,1.72,5.57,3.93,2.75
22/09/2015,795.06,501.82,85.65,378.66,235.53,220.1,5.3,4.32,0.91,2.32,1.65,1.66
23/09/2015,803.3,509.42,86.74,380.91,238.9,223.44,8.24,7.6,1.09,2.25,3.37,3.34
24/09/2015,812.2,516.72,88.08,384.3,242.58,227.1,8.9,7.3,1.34,3.39,3.68,3.66
25/09/2015,821.89,523.81,88.74,388.11,246.44,230.91,9.69,7.09,0.66,3.81,3.86,3.81
26/09/2015,833.36,531.52,89.58,393.2,250.02,234.46,11.47,7.71,0.84,5.09,3.58,3.55
27/09/2015,844.88,539.19,90.28,398.38,253.41,237.82,11.52,7.67,0.7,5.18,3.39,3.36
28/09/2015,857.21,548.71,91.73,403.15,257.07,241.38,12.33,9.52,1.45,4.77,3.66,3.56
29/09/2015,869.55,557.21,92.64,408.43,261.72,246.02,12.34,8.5,0.91,5.28,4.65,4.64
30/09/2015,880.11,564.93,93.71,412.78,265.96,250.23,10.56,7.72,1.07,4.35,4.24,4.21
01/10/2015,892,574.63,95.67,417.48,269.51,253.73,11.89,9.7,1.96,4.7,3.55,3.5
02/10/2015,903.45,581.65,96.28,423.05,271.93,256.09,11.45,7.02,0.61,5.57,2.42,2.36
03/10/2015,913.88,590.36,97.86,426.85,275.34,259.45,10.43,8.71,1.58,3.8,3.41,3.36
04/10/2015,921.42,596.67,98.5,429.22,278.5,262.59,7.54,6.31,0.64,2.37,3.16,3.14
05/10/2015,929.98,606.01,100.73,431.63,282.17,266.23,8.56,9.34,2.23,2.41,3.67,3.64
06/10/2015,934.65,614.53,105.19,433.42,284.57,267.37,4.67,8.52,4.46,1.79,2.4,1.14
07/10/2015,940.87,624.2,109.5,435.42,287.21,269.19,6.22,9.67,4.31,2,2.64,1.82
08/10/2015,945.59,634.15,115.4,437.36,291.95,270.53,4.72,9.95,5.9,1.94,4.74,1.34
09/10/2015,951.79,639.43,115.87,439.85,294.11,272.67,6.2,5.28,0.47,2.49,2.16,2.14
10/10/2015,960.1,645.05,115.93,443.68,296.47,275,8.31,5.62,0.06,3.83,2.36,2.33
11/10/2015,966.34,649.9,115.97,446.03,299.36,277.93,6.24,4.85,0.04,2.35,2.89,2.93
12/10/2015,973.47,655.19,115.97,448.86,301.97,280.59,7.13,5.29,0,2.83,2.61,2.66
13/10/2015,982.69,662.43,117.22,453.14,304.09,282.7,9.22,7.24,1.25,4.28,2.12,2.11
14/10/2015,989.35,670.78,119.74,455.11,307.31,285.88,6.66,8.35,2.52,1.97,3.22,3.18
15/10/2015,996.1,678.23,121.43,457.01,309.52,288.03,6.75,7.45,1.69,1.9,2.21,2.15
16/10/2015,1002,684.03,122.67,458.93,311.09,289.6,5.9,5.8,1.24,1.92,1.57,1.57
17/10/2015,1006,692.36,126.82,460.59,313.44,290.66,4,8.33,4.15,1.66,2.35,1.06
18/10/2015,1011,697.32,127.97,462.64,314.78,291.96,5,4.96,1.15,2.05,1.34,1.3
19/10/2015,1018,704.67,129.99,464.76,317.43,294.58,7,7.35,2.02,2.12,2.65,2.62
20/10/2015,1023,709.99,131.51,466.54,318.47,295.61,5,5.32,1.52,1.78,1.04,1.03
21/10/2015,1028,717.25,133.71,468.42,320.47,297.6,5,7.26,2.2,1.88,2,1.99
22/10/2015,1033,722.86,135.45,470.29,321.83,298.93,5,5.61,1.74,1.87,1.36,1.33
23/10/2015,1038,727.65,136.46,472.21,322.96,300.04,5,4.79,1.01,1.92,1.13,1.11
24/10/2015,1042,733.49,138.5,474.14,324.14,301.21,4,5.84,2.04,1.93,1.18,1.17
25/10/2015,1047,739.7,141.03,475.86,325.41,302.46,5,6.21,2.53,1.72,1.27,1.25
26/10/2015,1054,747.5,143.44,478.15,327.46,304.5,7,7.8,2.41,2.29,2.05,2.04
27/10/2015,1061,753.75,144.68,480.83,329.39,306.41,7,6.25,1.24,2.68,1.93,1.91
28/10/2015,1066,758.58,145.4,482.72,331.04,308.03,5,4.83,0.72,1.89,1.65,1.62
29/10/2015,1073,765.93,147.43,485.78,333.18,310.14,7,7.35,2.03,3.06,2.14,2.11
30/10/2015,1078,770.15,148.09,487.71,334.32,311.25,5,4.22,0.66,1.93,1.14,1.11
31/10/2015,1083,775.06,149.14,489.32,335.47,312.37,5,4.91,1.05,1.61,1.15,1.12
01/11/2015,1089,781.21,150.19,491.68,337.76,314.64,6,6.15,1.05,2.36,2.29,2.27
02/11/2015,1094,788.41,153.33,493.48,338.93,315.79,5,7.2,3.14,1.8,1.17,1.15
03/11/2015,1098,794.04,155.23,495.27,340.23,317.07,4,5.63,1.9,1.79,1.3,1.28
04/11/2015,1103,800.98,158.34,497.07,341.41,318.23,5,6.94,3.11,1.8,1.18,1.16
05/11/2015,1108,811.8,164.73,498.54,344.63,319.2,5,10.82,6.39,1.47,3.22,0.97
06/11/2015,1112,821.24,169.79,499.76,347.69,320.14,4,9.44,5.06,1.22,3.06,0.94
07/11/2015,1117,828.92,173.61,501.34,349.95,321.11,5,7.68,3.82,1.58,2.26,0.97
08/11/2015,1121,835.09,175.71,502.91,352.01,322.58,4,6.17,2.1,1.57,2.06,1.47
09/11/2015,1126,843.54,180.47,504.93,353.78,323.43,5,8.45,4.76,2.02,1.77,0.85
10/11/2015,1131,853.62,186.45,506.23,355.38,323.8,5,10.08,5.98,1.3,1.6,0.37
11/11/2015,1135,860.71,189.72,507.75,356.97,324.41,4,7.09,3.27,1.52,1.59,0.61
12/11/2015,1139,868.02,193.21,509.37,359.29,325.44,4,7.31,3.49,1.62,2.32,1.03
13/11/2015,1144,874.78,196.09,511.1,361.5,326.48,5,6.76,2.88,1.73,2.21,1.04
14/11/2015,1150,883.23,199.13,512.49,363.47,328.43,6,8.45,3.04,1.39,1.97,1.95
15/11/2015,1154,890.47,202.32,513.68,364.39,329.33,4,7.24,3.19,1.19,0.92,0.9
16/11/2015,1159,896.2,204.22,515.34,365.47,330.39,5,5.73,1.9,1.66,1.08,1.06
17/11/2015,1163,901.43,205.44,517.14,366.83,331.72,4,5.23,1.22,1.8,1.36,1.33
18/11/2015,1168,911.94,212.26,519.05,370.81,332.51,5,10.51,6.82,1.91,3.98,0.79
19/11/2015,1173,922.19,219.04,521.06,375.03,333.2,5,10.25,6.78,2.01,4.22,0.69
20/11/2015,1177,929.31,222.67,522.99,376.87,333.84,4,7.12,3.63,1.93,1.84,0.64
21/11/2015,1182,936.22,224.98,524.6,378.83,335.28,5,6.91,2.31,1.61,1.96,1.44
22/11/2015,1187,946.39,230.84,526.17,380.96,336.18,5,10.17,5.86,1.57,2.13,0.9
23/11/2015,1192,957.73,237.92,527.62,383.6,336.89,5,11.34,7.08,1.45,2.64,0.71
24/11/2015,1197,969.33,244.86,528.72,385.47,338.12,5,11.6,6.94,1.1,1.87,1.23
25/11/2015,1204,979.12,250.45,529.88,387.16,338.82,7,9.79,5.59,1.16,1.69,0.7
26/11/2015,1210,985.51,253.05,531.53,388.2,339.83,6,6.39,2.6,1.65,1.04,1.01
27/11/2015,1216,990.98,254.82,533.22,389.06,340.68,6,5.47,1.77,1.69,0.86,0.85
28/11/2015,1222,997.08,257.23,534.85,390.07,341.67,6,6.1,2.41,1.63,1.01,0.99
29/11/2015,1228,1003,259.19,536.49,391.16,342.74,6,5.92,1.96,1.64,1.09,1.07
30/11/2015,1235,1009,261.33,538.46,392.96,343.4,7,6,2.14,1.97,1.8,0.66
01/12/2015,1241,1012,261.62,540.55,394.27,344.71,6,3,0.29,2.09,1.31,1.31
02/12/2015,1247,1016,261.64,542.62,395.66,346.09,6,4,0.02,2.07,1.39,1.38
03/12/2015,1253,1019,261.66,544.73,397.03,347.44,6,3,0.02,2.11,1.37,1.35
04/12/2015,1259,1023,261.71,546.8,398.63,349,6,4,0.05,2.07,1.6,1.56
05/12/2015,1266,1029,264.3,548.59,400.38,350.51,7,6,2.59,1.79,1.75,1.51
06/12/2015,1272,1034,265.57,550.3,401.56,351.66,6,5,1.27,1.71,1.18,1.15
07/12/2015,1278,1042,269.72,551.99,402.46,352.55,6,8,4.15,1.69,0.9,0.89
08/12/2015,1285,1047,270.96,553.74,403.52,353.59,7,5,1.24,1.75,1.06,1.04
09/12/2015,1291,1052,272.01,555.54,404.73,354.78,6,5,1.05,1.8,1.21,1.19
10/12/2015,1298,1057,273.39,557.24,405.97,356,7,5,1.38,1.7,1.24,1.22
11/12/2015,1304,1062,274.56,558.96,407.04,357.05,6,5,1.17,1.72,1.07,1.05
12/12/2015,1310,1067,275.82,560.65,408.01,358.01,6,5,1.26,1.69,0.97,0.96
13/12/2015,1316,1071,276.09,562.54,409.14,359.12,6,4,0.27,1.89,1.13,1.11
14/12/2015,1323,1076,277.97,564.02,410.11,360.07,7,5,1.88,1.48,0.97,0.95
15/12/2015,1329,1084,281.78,565.56,411.04,360.98,6,8,3.81,1.54,0.93,0.91
16/12/2015,1335,1091,285,567.03,411.81,361.7,6,7,3.22,1.47,0.77,0.72
17/12/2015,1341,1098,288.06,568.61,413.44,362.83,6,7,3.06,1.58,1.63,1.13
18/12/2015,1348,1106,292.15,570.1,414.46,363.82,7,8,4.09,1.49,1.02,0.99
19/12/2015,1354,1112,294.73,571.78,415.54,364.88,6,6,2.58,1.68,1.08,1.06
20/12/2015,1360,1117,295.73,573.57,416.78,366.1,6,5,1,1.79,1.24,1.22
21/12/2015,1366,1124,299.17,575.18,417.83,367.15,6,7,3.44,1.61,1.05,1.05
22/12/2015,1373,1131,301.88,576.81,418.97,368.27,7,7,2.71,1.63,1.14,1.12
23/12/2015,1379,1136,303.88,578.42,419.72,369,6,5,2,1.61,0.75,0.73
24/12/2015,1385,1145,309.02,580.1,420.81,370.06,6,9,5.14,1.68,1.09,1.06
25/12/2015,1392,1153,312.65,581.72,422.39,371.6,7,8,3.63,1.62,1.58,1.54
26/12/2015,1398,1157,312.8,583.52,423.69,372.89,6,4,0.15,1.8,1.3,1.29
27/12/2015,1404,1162,313.85,585.09,424.98,374.16,6,5,1.05,1.57,1.29,1.27
28/12/2015,1411,1169,316.47,586.4,425.76,374.91,7,7,2.62,1.31,0.78,0.75
29/12/2015,1417,1177,320.06,587.86,426.9,376.02,6,8,3.59,1.46,1.14,1.11
30/12/2015,1423,1183,321.46,589.34,428.52,377.61,6,6,1.4,1.48,1.62,1.59
31/12/2015,1430,1189,324.17,590.63,429.73,378.79,7,6,2.71,1.29,1.21,1.18
01/01/2016,1436,1199,328.82,591.89,432.1,380.07,6,10,4.65,1.26,2.37,1.28
02/01/2016,1443,1203,330.01,593.36,433.54,381.51,7,4,1.19,1.47,1.44,1.44
03/01/2016,1449,1208,332.78,594.77,434.69,382.63,6,5,2.77,1.41,1.15,1.12
04/01/2016,1455,1215,336,596.17,435.5,383.43,6,7,3.22,1.4,0.81,0.8
05/01/2016,1462,1221,338.51,598,437.07,384.97,7,6,2.51,1.83,1.57,1.54
06/01/2016,1468,1226,340.49,600.01,438.52,386.4,6,5,1.98,2.01,1.45,1.43
07/01/2016,1474,1232,342.97,601.83,439.56,387.42,6,6,2.48,1.82,1.04,1.02
08/01/2016,1481,1242,348.32,603.54,443.33,388.93,7,10,5.35,1.71,3.77,1.51
09/01/2016,1488,1246,349.21,605.68,444.79,390.38,7,4,0.89,2.14,1.46,1.45
10/01/2016,1494,1249,349.27,607.69,445.95,391.52,6,3,0.06,2.01,1.16,1.14
11/01/2016,1501,1253,349.7,609.98,447.31,392.86,7,4,0.43,2.29,1.36,1.34
12/01/2016,1507,1257,350.76,612.03,448.44,393.98,6,4,1.06,2.05,1.13,1.12
13/01/2016,1513,1262,352.35,614.01,449.51,395.02,6,5,1.59,1.98,1.07,1.04
14/01/2016,1521,1267,353.42,616.13,451.13,396.61,8,5,1.07,2.12,1.62,1.59
15/01/2016,1527,1272,354.84,618.15,452.41,397.87,6,5,1.42,2.02,1.28,1.26
16/01/2016,1534,1278,355.87,620.19,454.31,399.73,7,6,1.03,2.04,1.9,1.86
17/01/2016,1542,1284,357.81,622.24,456.19,401.6,8,6,1.94,2.05,1.88,1.87
18/01/2016,1548,1290,360.81,624.27,457.36,402.75,6,6,3,2.03,1.17,1.15
19/01/2016,1554,1295,362.33,626.22,458.47,403.84,6,5,1.52,1.95,1.11,1.09
20/01/2016,1562,1301,363.59,628.24,460.46,405.81,8,6,1.26,2.02,1.99,1.97
21/01/2016,1569,1307,365.42,630.41,462.38,407.73,7,6,1.83,2.17,1.92,1.92
22/01/2016,1576,1313,367.25,632.21,463.78,409.11,7,6,1.83,1.8,1.4,1.38
23/01/2016, ,1320,372.45,633.48,464.33,409.54,0,7,5.2,1.27,0.55,0.43
24/01/2016, ,1323,375.89,633.62,464.61,409.82,0,3,3.44,0.14,0.28,0.28
25/01/2016, ,1328,380.35,633.84,465.13,410.34,0,5,4.46,0.22,0.52,0.52
26/01/2016, ,1333,384.67,634.11,465.87,411.08,0,5,4.32,0.27,0.74,0.74
27/01/2016, ,1337,388.5,634.11,465.89,411.09,0,4,3.83,0,0.02,0.01
28/01/2016, ,1341,392.91,634.12,465.9,411.1,0,4,4.41,0.01,0.01,0.01
29/01/2016, ,1348,397.74,634.47,467.48,412.66,0,7,4.83,0.35,1.58,1.56
30/01/2016, ,1352,402.25,634.56,467.63,412.8,0,4,4.51,0.09,0.15,0.14
31/01/2016, ,1356,405.23,635.34,469.76,414.91,0,4,2.98,0.78,2.13,2.11
01/02/2016, ,1361,409.64,635.46,470.1,415.25,0,5,4.41,0.12,0.34,0.34
02/02/2016, ,1364,413,635.56,470.4,415.55,0,3,3.36,0.1,0.3,0.3
03/02/2016, ,1372,419.37,635.91,471.87,416.99,0,8,6.37,0.35,1.47,1.44
04/02/2016, ,1379,423.69,636.49,473.7,418.78,0,7,4.32,0.58,1.83,1.79
05/02/2016, ,1384,429,636.55,475.01,418.88,0,5,5.31,0.06,1.31,0.1
06/02/2016, ,1391,436.37,636.6,476.38,418.99,0,7,7.37,0.05,1.37,0.11
07/02/2016, ,1393,438.62,636.61,476.38,418.99,0,2,2.25,0.01,0,0
08/02/2016, ,1398,441.14,637.24,479,421.61,0,5,2.52,0.63,2.62,2.62
09/02/2016, ,1401,443.6,637.46,479.76,422.36,0,3,2.46,0.22,0.76,0.75
10/02/2016, ,1406,446.69,638.28,482.18,424.76,0,5,3.09,0.82,2.42,2.4
11/02/2016, ,1408,448.5,638.5,482.77,425.35,0,2,1.81,0.22,0.59,0.59
12/02/2016, ,1412,450.07,640.03,484.9,427.47,0,4,1.57,1.53,2.13,2.12
13/02/2016, ,1415,452.04,640.35,485.87,428.43,0,3,1.97,0.32,0.97,0.96
14/02/2016, ,1417,454.67,640.35,485.87,428.44,0,2,2.63,0,0,0.01
15/02/2016, ,1421,457,641.16,488.63,431.19,0,4,2.33,0.81,2.76,2.75
16/02/2016, ,1435,466.13,641.73,493.19,433.46,0,14,9.13,0.57,4.56,2.27
17/02/2016, ,1445,472.64,643.51,495.54,435.8,0,10,6.51,1.78,2.35,2.34
18/02/2016, ,1451,478.13,643.65,497.24,436.24,0,6,5.49,0.14,1.7,0.44
19/02/2016, ,1458,481.46,645.73,499.23,438.21,0,7,3.33,2.08,1.99,1.97
20/02/2016, ,1464,484.76,646.32,501.64,440.58,0,6,3.3,0.59,2.41,2.37
21/02/2016, ,1469,488.2,646.53,502.43,441.37,0,5,3.44,0.21,0.79,0.79
22/02/2016, ,1475,493.65,646.8,503.39,442.32,0,6,5.45,0.27,0.96,0.95
23/02/2016, ,1482,497.78,647.23,505.13,444.05,0,7,4.13,0.43,1.74,1.73
24/02/2016, ,1488,501.56,648.05,507.63,446.54,0,6,3.78,0.82,2.5,2.49
25/02/2016, ,1495,505.01,649.78,510.31,449.2,0,7,3.45,1.73,2.68,2.66
26/02/2016, ,1508,513.82,650.2,513.37,451.13,0,13,8.81,0.42,3.06,1.93
27/02/2016, ,1516,518.38,650.71,515.32,453.07,0,8,4.56,0.51,1.95,1.94
28/02/2016, ,1518,520.66,650.99,516.01,453.76,0,2,2.28,0.28,0.69,0.69
29/02/2016, ,1525,524.62,652.44,518.61,456.34,0,7,3.96,1.45,2.6,2.58
01/03/2016, ,1533,527.79,654.14,521.76,459.46,0,8,3.17,1.7,3.15,3.12
02/03/2016, ,1539,532.58,654.32,522.36,459.98,0,6,4.79,0.18,0.6,0.52
03/03/2016, ,1545,536.31,655.69,524.04,461.65,0,6,3.73,1.37,1.68,1.67
04/03/2016, ,1553,539.72,656.31,527.14,464.7,0,8,3.41,0.62,3.1,3.05
05/03/2016, ,1560,542.57,660.12,529.93,467.48,0,7,2.85,3.81,2.79,2.78
06/03/2016, ,1565,545.59,660.51,531.86,469.4,0,5,3.02,0.39,1.93,1.92
07/03/2016, ,1570,548.23,661.35,533.83,471.36,0,5,2.64,0.84,1.97,1.96
08/03/2016, ,1578,551.07,664.16,538.41,475.9,0,8,2.84,2.81,4.58,4.54
09/03/2016, ,1585,554.93,664.66,540.76,478.25,0,7,3.86,0.5,2.35,2.35
10/03/2016, ,1589,558.23,664.91,541.76,479.24,0,4,3.3,0.25,1,0.99
11/03/2016, ,1593,562,665.23,542.53,479.99,0,4,3.77,0.32,0.77,0.75
12/03/2016, ,1601,564.36,669.11,545.17,482.61,0,8,2.36,3.88,2.64,2.62
13/03/2016, ,1607,567.28,671.36,547.31,484.74,0,6,2.92,2.25,2.14,2.13
14/03/2016, ,1615,570.23,675.82,550.23,487.63,0,8,2.95,4.46,2.92,2.89
15/03/2016, ,1624,573.06,681.7,552.78,490.14,0,9,2.83,5.88,2.55,2.51
16/03/2016, ,1628,576.82,682.03,553.68,491.03,0,4,3.76,0.33,0.9,0.89
17/03/2016, ,1635,580.12,685.1,555.89,493.2,0,7,3.3,3.07,2.21,2.17
18/03/2016, ,1645,582.98,689.68,559.38,496.64,0,10,2.86,4.58,3.49,3.44
19/03/2016, ,1648,586.59,689.68,559.38,496.64,0,3,3.61,0,0,0
20/03/2016, ,1652,591.06,689.96,560.1,497.35,0,4,4.47,0.28,0.72,0.71
21/03/2016, ,1658,595.52,690.42,561.35,498.57,0,6,4.46,0.46,1.25,1.22
22/03/2016, ,1665,598.7,692.19,565.2,502.39,0,7,3.18,1.77,3.85,3.82
23/03/2016, ,1673,601.47,697.46,568.8,505.95,0,8,2.77,5.27,3.6,3.56
24/03/2016, ,1679,606.05,698.01,570.11,507.24,0,6,4.58,0.55,1.31,1.29
25/03/2016, ,1686,611.91,698.5,572.51,508.58,0,7,5.86,0.49,2.4,1.34
26/03/2016, ,1695,615.02,704.6,576.24,512.2,0,9,3.11,6.1,3.73,3.62
27/03/2016, ,1699,619.59,704.61,576.27,512.22,0,4,4.57,0.01,0.03,0.02
28/03/2016, ,1705,621.66,709.21,579.42,515.34,0,6,2.07,4.6,3.15,3.12
29/03/2016, ,1712,623.97,712.91,583.83,519.68,0,7,2.31,3.7,4.41,4.34
30/03/2016, ,1719,627.03,716.46,586.07,521.87,0,7,3.06,3.55,2.24,2.19
31/03/2016, ,1726,629.37,720.67,589.86,525.61,0,7,2.34,4.21,3.79,3.74
01/04/2016, ,1735,632.48,723.77,593.54,529.25,0,9,3.11,3.1,3.68,3.64
02/04/2016, ,1741,635.21,728.18,597.54,533.24,0,6,2.73,4.41,4,3.99
03/04/2016, ,1748,637.35,733.67,599.36,535.07,0,7,2.14,5.49,1.82,1.83
04/04/2016, ,1757,642.22,735.57,602.11,537.79,0,9,4.87,1.9,2.75,2.72
05/04/2016, ,1764,645.57,736.93,605.97,541.57,0,7,3.35,1.36,3.86,3.78
06/04/2016, ,1772,647.97,741.9,609.81,545.36,0,8,2.4,4.97,3.84,3.79
07/04/2016, ,1780,650.89,745.78,613.54,549.02,0,8,2.92,3.88,3.73,3.66
08/04/2016, ,1787,653.87,747.42,617.3,552.75,0,7,2.98,1.64,3.76,3.73
09/04/2016, ,1795,657,751.64,620.36,555.8,0,8,3.13,4.22,3.06,3.05
10/04/2016, ,1800,659.03,754.71,624.07,559.5,0,5,2.03,3.07,3.71,3.7
11/04/2016, ,1811,662.26,758.59,627.98,563.15,0,11,3.23,3.88,3.91,3.65
12/04/2016, ,1817,665.46,759.34,630.49,565.66,0,6,3.2,0.75,2.51,2.51
13/04/2016, ,1825,667.74,766.45,634.64,569.8,0,8,2.28,7.11,4.15,4.14
14/04/2016, ,1832,670.86,770.75,637.46,572.57,0,7,3.12,4.3,2.82,2.77
15/04/2016, ,1840,672.95,776.52,641.55,576.64,0,8,2.09,5.77,4.09,4.07
16/04/2016, ,1844,675.56,777.05,643.37,578.47,0,4,2.61,0.53,1.82,1.83
17/04/2016, ,1850,677.67,779.86,646.64,581.69,0,6,2.11,2.81,3.27,3.22
18/04/2016, ,1858,680.67,786.39,650.64,585.66,0,8,3,6.53,4,3.97
19/04/2016, ,1865,683.72,787.36,653.98,589.01,0,7,3.05,0.97,3.34,3.35
20/04/2016, ,1874,686.15,794.07,656.92,591.81,0,9,2.43,6.71,2.94,2.8
21/04/2016, ,1884,687.92,804.2,659.71,594.59,0,10,1.77,10.13,2.79,2.78
22/04/2016, ,1891,690.52,808.48,663.45,598.27,0,7,2.6,4.28,3.74,3.68
23/04/2016, ,1898,695.93,808.97,664.47,599.28,0,7,5.41,0.49,1.02,1.01
24/04/2016, ,1907,699.64,813.01,668.63,603.38,0,9,3.71,4.04,4.16,4.1
25/04/2016, ,1916,703.76,816.11,672.24,606.93,0,9,4.12,3.1,3.61,3.55
26/04/2016, ,1925,707.99,817.02,675.77,610.39,0,9,4.23,0.91,3.53,3.46
27/04/2016, ,1933,710.79,824.15,679.36,613.96,0,8,2.8,7.13,3.59,3.57
28/04/2016, ,1940,712.9,829.38,682.73,617.3,0,7,2.11,5.23,3.37,3.34
29/04/2016, ,1947,714.61,835.44,686.55,621.06,0,7,1.71,6.06,3.82,3.76
30/04/2016, ,1957,717.74,843.05,691.07,625.57,0,10,3.13,7.61,4.52,4.51
01/05/2016, ,1965,721.27,850.83,695,629.46,0,8,3.53,7.78,3.93,3.89
02/05/2016, ,1973,723.38,859.86,697.56,632,0,8,2.11,9.03,2.56,2.54
03/05/2016, ,1982,728.07,862.77,701.24,635.65,0,9,4.69,2.91,3.68,3.65
04/05/2016, ,1989,730.78,868.82,704.72,639.1,0,7,2.71,6.05,3.48,3.45
05/05/2016, ,1999,733.89,879.41,707.55,641.86,0,10,3.11,10.59,2.83,2.76
06/05/2016, ,2009,737.38,889.44,712.12,645.53,0,10,3.49,10.03,4.57,3.67
07/05/2016, ,2018,742.12,899,716.25,647.71,0,9,4.74,9.56,4.13,2.18
08/05/2016, ,2025,746.34,906.77,719.99,649.04,0,7,4.22,7.77,3.74,1.33
09/05/2016, ,2034,750.44,916.92,724.91,652.79,0,9,4.1,10.15,4.92,3.75
10/05/2016, ,2043,757.5,920.21,729.4,653.74,0,9,7.06,3.29,4.49,0.95
11/05/2016, ,2050,764.24,920.49,731.12,654.27,0,7,6.74,0.28,1.72,0.53
12/05/2016, ,2055,768.66,922.24,734.57,655.9,0,5,4.42,1.75,3.45,1.63
13/05/2016, ,2063,771.46,930.69,738.83,659.2,0,8,2.8,8.45,4.26,3.3
14/05/2016, ,2070,774.13,941.18,743.73,662.96,0,7,2.67,10.49,4.9,3.76
15/05/2016, ,2077,775.52,950.03,747.86,667.05,0,7,1.39,8.85,4.13,4.09
16/05/2016, ,2084,778.61,960.32,752.35,670.11,0,7,3.09,10.29,4.49,3.06
17/05/2016, ,2090,779.71,970.44,756.53,674.27,0,6,1.1,10.12,4.18,4.16
18/05/2016, ,2095,780.9,974.62,759.54,677.27,0,5,1.19,4.18,3.01,3
19/05/2016, ,2098,782.48,975.95,761.64,679.35,0,3,1.58,1.33,2.1,2.08
20/05/2016, ,2103,783.77,979.06,765.03,682.73,0,5,1.29,3.11,3.39,3.38
21/05/2016, ,2111,785.74,983.36,768.44,686.11,0,8,1.97,4.3,3.41,3.38
22/05/2016, ,2115,787.72,984.14,770.9,688.54,0,4,1.98,0.78,2.46,2.43
23/05/2016, ,2123,793.31,987.6,774.15,690.85,0,8,5.59,3.46,3.25,2.31
24/05/2016, ,2132,796.92,995.85,778.59,694.22,0,9,3.61,8.25,4.44,3.37
25/05/2016, ,2139,799.11,1004,782.53,698.15,0,7,2.19,8.15,3.94,3.93